2018-096M (43730 NORAD) Tracking and Keplerian Element Data

This shows tracking and keplerian element data for the satellite.

Feedback or suggestion? Click here.




ElementValue
Catalog43730
Name2018-096M
Epoch Orbit173
Epoch Day344.50284872
Epoch Year2018
RAAN49.5184
Inclination97.4875
Eccentricity0.0018599
Argument of Perigee288.1088
Mean Anonmoly71.8124
Mean Motion15.26404788
Decay Rate9.89E-06
L11 43730U 18096M 18344.50284872 .00000989 00000-0 40754-4 0 9997
L22 43730 97.4875 49.5184 0018599 288.1088 71.8124 15.26404788 1736

Live tracking and technical data element details for 2018-096M (NORAD 43730). 2018-096M can be tracked NOW for your location showing map with azimuth and elevation plus other details from your city location.

Track the satellite on the map from your city or location and see movement details for azimuth, elevation, latitude, longitude, range, height, and movement on the map or in text.







IsCatalogInMostPopularTable: catalog: 43730, numindb: 5
Update: records affected: 1



GetName: 43730 2018-096M

Hit Count: updated at: Tue, 11 Dec 2018 03:04:35 GMT